CW2995 Weather Reports


time (UTC)temp
F
wind
direction
speed
knots
gust
knots
rain 1hr
in
rain 24hr
in
rain mn
in
humidity
%
barometer
mb
20260507033259 61 268 5.2 7.8 0.00 0.00 0.00 80 1016.6
20260507032744 61 235 4.3 7.8 0.00 0.00 0.00 81 1016.5
20260507032249 61 256 3.5 6.1 0.00 0.00 0.00 81 1016.5
20260507031751 61 242 3.5 8.7 0.00 0.00 0.00 80 1016.5
20260507031257 61 223 4.3 9.6 0.00 0.00 0.00 80 1016.3
20260507030821 61 277 3.5 12.2 0.00 0.00 0.00 79 1016.3
20260507030246 61 258 6.1 12.2 0.00 0.00 0.00 79 1016.3
20260507025751 61 269 4.3 9.6 0.00 0.00 0.00 79 1016.1
20260507025256 61 265 5.2 7.8 0.00 0.00 0.00 80 1016.1
20260507024829 61 296 3.5 9.6 0.00 0.00 0.00 80 1016.1
20260507024247 62 281 4.3 9.6 0.00 0.00 0.00 79 1016.1
20260507023817 62 266 4.3 11.3 0.00 0.00 0.00 79 1016.1
20260507023301 62 263 4.3 11.3 0.00 0.00 0.00 79 1016.1
20260507022807 62 267 5.2 8.7 0.00 0.00 0.00 77 1016.0
20260507022243 62 235 4.3 7.8 0.00 0.00 0.00 77 1016.0
20260507021810 63 249 3.5 7.0 0.00 0.00 0.00 76 1016.0
20260507021253 63 315 3.5 7.8 0.00 0.00 0.00 75 1015.9
20260507020757 63 305 3.5 7.8 0.00 0.00 0.00 74 1015.9
20260507020244 63 238 2.6 8.7 0.00 0.00 0.00 75 1015.9
20260507015752 63 248 5.2 8.7 0.00 0.00 0.00 73 1015.9
20260507015255 63 217 2.6 11.3 0.00 0.00 0.00 75 1015.9
20260507014758 63 263 6.1 11.3 0.00 0.00 0.00 74 1015.9
20260507014323 63 290 5.2 11.3 0.00 0.00 0.00 76 1015.9
20260507013746 64 269 5.2 11.3 0.00 0.00 0.00 74 1015.9
20260507013319 64 237 5.2 11.3 0.00 0.00 0.00 74 1015.9
20260507012803 64 321 4.3 11.3 0.00 0.00 0.00 74 1015.8
20260507012247 65 242 5.2 8.7 0.00 0.00 0.00 73 1015.8
20260507011753 65 279 4.3 11.3 0.00 0.00 0.00 74 1015.8
20260507011256 64 254 7.0 12.2 0.00 0.00 0.00 74 1015.8
20260507010801 64 259 7.0 12.2 0.00 0.00 0.00 74 1015.8
20260507010249 65 265 5.2 10.4 0.00 0.00 0.00 73 1015.8
20260507005755 65 249 4.3 12.2 0.00 0.00 0.00 73 1015.6
20260507005259 65 241 6.1 11.3 0.00 0.00 0.00 73 1015.6
20260507004802 65 245 5.2 11.3 0.00 0.00 0.00 73 1015.6
20260507004246 65 281 6.1 11.3 0.00 0.00 0.00 73 1015.9
20260507003752 65 245 6.1 11.3 0.00 0.00 0.00 72 1015.9
20260507003255 65 275 7.0 12.2 0.00 0.00 0.00 72 1015.9
20260507002814 65 286 7.0 10.4 0.00 0.00 0.00 72 1016.0
20260507002252 65 248 5.2 10.4 0.00 0.00 0.00 72 1016.0
20260507001750 66 234 4.3 9.6 0.00 0.00 0.00 72 1016.0
20260507001255 66 290 4.3 9.6 0.00 0.00 0.00 72 1015.7
20260507000759 66 259 4.3 10.4 0.00 0.00 0.00 72 1015.7
20260507000314 66 258 6.1 13.0 0.00 0.00 0.00 72 1015.7
20260506235753 66 228 6.1 13.0 0.00 0.00 0.00 72 1015.8
20260506235258 66 227 6.1 11.3 0.00 0.00 0.00 72 1015.8
20260506234802 66 238 6.1 12.2 0.00 0.00 0.00 72 1015.8
20260506234306 66 246 6.1 12.2 0.00 0.00 0.00 72 1015.9
20260506233743 66 250 5.2 10.4 0.00 0.00 0.00 70 1015.9
20260506233247 66 234 3.5 10.4 0.00 0.00 0.00 69 1015.9
20260506232818 66 321 5.2 14.8 0.00 0.00 0.00 69 1015.9
20260506232258 66 261 7.0 14.8 0.00 0.00 0.00 69 1015.9
20260506231801 66 227 5.2 13.9 0.00 0.00 0.00 69 1015.9
20260506231244 66 192 7.8 11.3 0.00 0.00 0.00 69 1016.1
20260506230747 67 256 5.2 11.3 0.00 0.00 0.00 68 1016.1
20260506230249 67 250 6.1 11.3 0.00 0.00 0.00 68 1016.1
20260506225753 67 263 6.1 11.3 0.00 0.00 0.00 68 1016.1
20260506225256 67 265 5.2 11.3 0.00 0.00 0.00 68 1016.1
20260506224809 67 269 6.1 11.3 0.00 0.00 0.00 68 1016.1
20260506224247 66 298 6.1 12.2 0.00 0.00 0.00 69 1016.3
20260506223817 66 242 6.1 12.2 0.00 0.00 0.00 69 1016.3
20260506223255 66 248 7.0 12.2 0.00 0.00 0.00 69 1016.3
20260506222759 67 269 6.1 12.2 0.00 0.00 0.00 68 1016.5
20260506222306 66 223 7.0 13.0 0.00 0.00 0.00 68 1016.5
20260506221751 67 233 6.1 13.0 0.00 0.00 0.00 68 1016.5
20260506221317 67 238 5.2 11.3 0.00 0.00 0.00 68 1016.7
20260506220827 67 281 5.2 11.3 0.00 0.00 0.00 68 1016.7
20260506220246 67 279 7.0 12.2 0.00 0.00 0.00 67 1016.7
20260506215751 66 313 4.3 12.2 0.00 0.00 0.00 70 1017.0
20260506215306 66 238 7.8 13.9 0.00 0.00 0.00 69 1017.0
20260506214744 67 257 7.0 13.9 0.00 0.00 0.00 68 1017.0
20260506214257 67 248 5.2 11.3 0.00 0.00 0.00 68 1017.1
20260506213756 67 297 6.1 11.3 0.00 0.00 0.00 66 1017.1
20260506213249 67 241 6.1 10.4 0.00 0.00 0.00 67 1017.1
20260506212750 67 229 4.3 10.4 0.00 0.00 0.00 68 1017.1
20260506212258 67 238 6.1 13.9 0.00 0.00 0.00 68 1017.1
20260506211744 66 224 5.2 13.9 0.00 0.00 0.00 69 1017.1
20260506211248 66 238 7.8 13.0 0.00 0.00 0.00 69 1017.1
20260506210814 66 246 7.0 11.3 0.00 0.00 0.00 65 1017.1
20260506210258 66 217 7.0 12.2 0.00 0.00 0.00 68 1017.1
20260506205803 66 291 7.0 12.2 0.00 0.00 0.00 67 1017.2
20260506205248 67 322 6.1 9.6 0.00 0.00 0.00 63 1017.2
20260506204753 67 233 5.2 11.3 0.00 0.00 0.00 66 1017.2
20260506204257 67 241 6.1 9.6 0.00 0.00 0.00 63 1017.3
20260506203802 68 207 5.2 9.6 0.00 0.00 0.00 64 1017.3
20260506203245 67 225 5.2 10.4 0.00 0.00 0.00 66 1017.3
20260506202751 67 235 7.0 10.4 0.00 0.00 0.00 63 1017.4
20260506202316 67 285 4.3 11.3 0.00 0.00 0.00 65 1017.4
20260506201809 67 243 5.2 9.6 0.00 0.00 0.00 61 1017.4
20260506201308 67 232 3.5 11.3 0.00 0.00 0.00 63 1017.6
20260506200747 67 264 4.3 11.3 0.00 0.00 0.00 62 1017.6
20260506200248 67 209 5.2 9.6 0.00 0.00 0.00 62 1017.6
20260506195823 67 277 5.2 9.6 0.00 0.00 0.00 63 1017.6
20260506195306 67 263 6.1 9.6 0.00 0.00 0.00 64 1017.6
20260506194810 67 267 6.1 9.6 0.00 0.00 0.00 62 1017.6
20260506194245 67 202 6.1 10.4 0.00 0.00 0.00 63 1017.7
20260506193751 67 260 6.1 10.4 0.00 0.00 0.00 62 1017.7
20260506193256 67 257 7.0 11.3 0.00 0.00 0.00 63 1017.7
20260506192808 67 216 6.1 11.3 0.00 0.00 0.00 63 1018.1
20260506192246 67 257 5.2 9.6 0.00 0.00 0.00 64 1018.1
20260506191751 67 288 6.1 9.6 0.00 0.00 0.00 64 1018.1
20260506191259 67 301 5.2 9.6 0.00 0.00 0.00 66 1018.1
20260506190743 67 198 3.5 9.6 0.00 0.00 0.00 66 1018.1
20260506190247 67 263 6.1 9.6 0.00 0.00 0.00 66 1018.1
20260506185751 66 230 5.2 9.6 0.00 0.00 0.00 65 1018.2
20260506185256 66 228 6.1 9.6 0.00 0.00 0.00 66 1018.2
20260506184801 67 243 4.3 7.8 0.00 0.00 0.00 66 1018.2
20260506184246 67 250 4.3 9.6 0.00 0.00 0.00 65 1018.2
20260506183748 67 257 4.3 8.7 0.00 0.00 0.00 66 1018.2
20260506183251 66 262 5.2 10.4 0.00 0.00 0.00 66 1018.2
20260506182750 67 250 4.3 10.4 0.00 0.00 0.00 65 1018.2
20260506182256 67 218 3.5 7.8 0.00 0.00 0.00 65 1018.2
20260506181800 67 230 4.3 7.8 0.00 0.00 0.00 66 1018.2
20260506181246 66 269 4.3 7.8 0.00 0.00 0.00 67 1018.2
20260506180746 66 229 4.3 8.7 0.00 0.00 0.00 67 1018.2
20260506180252 66 238 5.2 8.7 0.00 0.00 0.00 66 1018.2
20260506175756 67 269 3.5 7.0 0.00 0.00 0.00 66 1018.2
20260506175305 67 235 4.3 7.0 0.00 0.00 0.00 67 1018.2
20260506174746 66 250 5.2 7.8 0.00 0.00 0.00 66 1018.2
20260506174309 66 262 5.2 7.8 0.00 0.00 0.00 66 1018.2
20260506173821 67 235 4.3 7.0 0.00 0.00 0.00 65 1018.2
20260506173304 67 238 3.5 7.0 0.00 0.00 0.00 65 1018.2
20260506172808 68 241 3.5 7.0 0.00 0.00 0.00 64 1018.2
20260506172253 67 255 2.6 7.0 0.00 0.00 0.00 65 1018.2
20260506171817 67 232 4.3 7.0 0.00 0.00 0.00 63 1018.2
20260506171302 67 294 2.6 6.1 0.00 0.00 0.00 64 1018.1
20260506170744 67 159 4.3 6.1 0.00 0.00 0.00 63 1018.1
20260506170245 68 173 1.7 3.5 0.00 0.00 0.00 62 1018.1
20260506165806 67 9 1.7 3.5 0.00 0.00 0.00 62 1018.1
20260506165253 67 100 0.9 4.3 0.00 0.00 0.00 63 1018.1
20260506164757 67 192 1.7 4.3 0.00 0.00 0.00 62 1018.1
20260506164301 68 159 1.7 3.5 0.00 0.00 0.00 61 1018.1
20260506163746 67 86 1.7 2.6 0.00 0.00 0.00 63 1018.1
20260506163251 66 262 0.0 2.6 0.00 0.00 0.00 64 1018.1
20260506162756 66 221 0.9 2.6 0.00 0.00 0.00 62 1018.1
20260506162307 66 149 0.9 5.2 0.00 0.00 0.00 64 1018.1
20260506161744 65 90 2.6 4.3 0.00 0.00 0.00 64 1018.1
20260506161252 65 213 0.9 3.5 0.00 0.00 0.00 67 1018.1
20260506160753 65 176 1.7 4.3 0.00 0.00 0.00 67 1018.1
20260506160259 65 360 1.7 4.3 0.00 0.00 0.00 67 1018.1
20260506155743 65 59 1.7 3.5 0.00 0.00 0.00 69 1018.1
20260506155246 64 39 0.9 3.5 0.00 0.00 0.00 70 1018.1
20260506154752 64 138 1.7 3.5 0.00 0.00 0.00 71 1018.1
20260506154257 63 211 0.9 4.3 0.00 0.00 0.00 72 1018.1
20260506153803 63 137 2.6 5.2 0.00 0.00 0.00 73 1018.1
20260506153244 63 119 1.7 4.3 0.00 0.00 0.00 73 1018.1
20260506152748 63 171 1.7 3.5 0.00 0.00 0.00 73 1018.2
20260506152251 63 84 1.7 3.5 0.00 0.00 0.00 73 1018.2
20260506151759 63 87 1.7 3.5 0.00 0.00 0.00 73 1018.2
20260506151243 62 190 0.9 2.6 0.00 0.00 0.00 73 1018.2
20260506150818 62 84 1.7 2.6 0.00 0.00 0.00 73 1018.2
20260506150304 62 45 0.0 2.6 0.00 0.00 0.00 75 1018.2
20260506145804 62 29 0.9 2.6 0.00 0.00 0.00 76 1018.2
20260506145244 61 136 1.7 2.6 0.00 0.00 0.00 76 1018.2
20260506144747 61 63 1.7 4.3 0.00 0.00 0.00 76 1018.2
20260506144251 61 97 2.6 4.3 0.00 0.00 0.00 76 1018.1
20260506143750 61 76 0.9 1.7 0.00 0.00 0.00 78 1018.1
20260506143322 60 76 0.0 2.6 0.00 0.00 0.00 78 1018.1
20260506142804 60 85 1.7 2.6 0.00 0.00 0.00 78 1017.9
20260506142308 59 84 0.9 4.3 0.00 0.00 0.00 79 1017.9
20260506141746 59 109 2.6 4.3 0.00 0.00 0.00 79 1017.9
20260506141256 59 94 0.9 1.7 0.00 0.00 0.00 80 1017.7
20260506140801 58 62 0.9 0.9 0.00 0.00 0.00 81 1017.7
20260506140247 58 43 0.0 1.7 0.00 0.00 0.00 83 1017.7
20260506135750 57 38 0.0 3.5 0.00 0.00 0.00 83 1017.7
20260506135255 56 47 1.7 3.5 0.00 0.00 0.00 84 1017.7
20260506134800 56 34 0.0 1.7 0.00 0.00 0.00 85 1017.7
20260506134246 55 32 0.0 1.7 0.00 0.00 0.00 86 1017.7
20260506133751 54 19 284.2 0.9 0.00 0.00 0.00 86 1017.7
20260506133256 0 0.0 0.0 0.00 0.00 0.00 1017.7
20260506132758 0 0.0 0.0 0.00 0.00 0.00 1017.5
20260506132300 0 0.0 0.0 0.00 0.00 0.00 1017.5
20260506131812 0 0.0 0.0 0.00 0.00 0.00 1017.5
20260506131244 0 0.0 0.0 0.00 0.00 0.00 1017.2
20260506130748 0 0.0 0.0 0.00 0.00 0.00 1017.2
20260506130253 0 0.0 0.0 0.00 0.00 0.00 1017.2
20260506125755 0 0.0 0.0 0.00 0.00 0.00 1017.1
20260506125258 0 0.0 0.0 0.00 0.00 0.00 1017.1
20260506124743 0 0.0 0.0 0.00 0.00 0.00 1017.1
20260506124248 0 0.0 0.0 0.00 0.00 0.00 1017.1
20260506123751 0 0.0 0.0 0.00 0.00 0.00 1017.1
20260506123307 0 0.0 0.0 0.00 0.00 0.00 1017.1
20260506122743 0 0.0 0.0 0.00 0.00 0.00 1017.1
20260506122246 0 0.0 0.0 0.00 0.00 0.00 1017.1
20260506121747 0 0.0 0.0 0.00 0.00 0.00 1017.1
20260506121310 0 0.0 0.0 0.00 0.00 0.00 1017.1
20260506120755 0 0.0 0.0 0.00 0.00 0.00 1017.1
20260506120256 0 0.0 0.0 0.00 0.00 0.00 1017.1
20260506115801 0 0.0 0.0 0.00 0.00 0.00 1016.9
20260506115307 0 0.0 0.0 0.00 0.00 0.00 1016.9
20260506114749 0 0.0 0.0 0.00 0.00 0.00 1016.9
20260506114314 0 0.0 0.0 0.00 0.00 0.00 1016.9
20260506113756 0 0.0 0.0 0.00 0.00 0.00 1016.9
20260506112755 0 351 0.0 0.0 0.00 0.00 0.00 1016.7
20260506112256 54 355 0.0 0.0 0.00 0.00 0.00 86 1016.7
20260506111801 54 355 0.0 0.0 0.00 0.00 0.00 86 1016.7
20260506111245 54 351 0.0 0.0 0.00 0.00 0.00 86 1016.7
20260506110749 55 351 0.0 0.0 0.00 0.00 0.00 86 1016.7
20260506110255 55 351 0.0 0.0 0.00 0.00 0.00 86 1016.7
20260506105757 55 351 0.0 0.0 0.00 0.00 0.00 86 1016.7
20260506105308 55 351 0.0 1.7 0.00 0.00 0.00 86 1016.7
20260506104744 55 351 0.0 1.7 0.00 0.00 0.00 86 1016.7
20260506104249 55 350 0.0 0.0 0.00 0.00 0.00 87 1016.7
20260506103801 55 350 0.0 0.0 0.00 0.00 0.00 87 1016.7
20260506103259 55 350 0.0 0.0 0.00 0.00 0.00 86 1016.7
20260506102746 55 350 0.0 0.0 0.00 0.00 0.00 87 1016.7
20260506102254 55 350 0.0 0.0 0.00 0.00 0.00 87 1016.7
20260506101757 55 350 0.0 0.9 0.00 0.00 0.00 86 1016.7
20260506101259 55 350 0.0 0.9 0.00 0.00 0.00 86 1016.8
20260506100804 55 350 0.0 0.9 0.00 0.00 0.00 86 1016.8
20260506100308 55 286 0.0 0.0 0.00 0.00 0.00 86 1016.8
20260506095744 55 286 0.0 0.0 0.00 0.00 0.00 85 1016.8
20260506095246 56 286 0.0 0.0 0.00 0.00 0.00 85 1016.8
20260506094748 56 286 0.0 0.0 0.00 0.00 0.00 85 1016.8
20260506094259 56 286 0.0 0.0 0.00 0.00 0.00 86 1016.8
20260506093744 56 286 0.0 0.0 0.00 0.00 0.00 84 1016.8
20260506093308 56 286 0.0 0.0 0.00 0.00 0.00 84 1016.8
20260506092750 56 286 0.0 0.0 0.00 0.00 0.00 84 1017.0
20260506092255 57 286 0.0 0.0 0.00 0.00 0.00 84 1017.0
20260506091801 57 286 0.0 0.0 0.00 0.00 0.00 84 1017.0
20260506091308 57 286 0.0 0.9 0.00 0.00 0.00 83 1017.1
20260506090755 57 286 0.0 1.7 0.00 0.00 0.00 83 1017.1
20260506090303 57 286 0.0 1.7 0.00 0.00 0.00 84 1017.1
20260506085807 57 284 0.0 1.7 0.00 0.00 0.00 83 1017.1
20260506085311 57 234 0.0 0.9 0.00 0.00 0.00 82 1017.1
20260506084755 58 234 0.9 1.7 0.00 0.00 0.00 82 1017.1
20260506084259 58 234 0.0 1.7 0.00 0.00 0.00 82 1017.2
20260506083803 58 235 0.9 1.7 0.00 0.00 0.00 82 1017.2
20260506083246 57 221 0.9 2.6 0.00 0.00 0.00 82 1017.2
20260506082750 57 239 0.9 2.6 0.00 0.00 0.00 82 1017.1
20260506082258 57 252 0.0 0.9 0.00 0.00 0.00 82 1017.1
20260506081805 57 233 0.9 1.7 0.00 0.00 0.00 82 1017.1
20260506081310 57 250 0.9 1.7 0.00 0.00 0.00 82 1017.2
20260506080755 57 219 0.0 1.7 0.00 0.00 0.00 81 1017.2
20260506080257 57 218 0.0 0.9 0.00 0.00 0.00 81 1017.2
20260506073253 57 197 0.0 0.0 0.00 0.00 0.00 81 1017.2
20260506072755 57 197 0.0 0.0 0.00 0.00 0.00 81 1017.1
20260506072317 57 197 0.0 0.0 0.00 0.00 0.00 80 1017.1
20260506071803 57 197 0.0 0.0 0.00 0.00 0.00 80 1017.1
20260506071248 58 197 0.0 0.0 0.00 0.00 0.00 80 1017.1
20260506070750 58 197 0.0 0.0 0.00 0.00 0.00 80 1017.1
20260506070255 58 199 0.0 1.7 0.00 0.00 0.00 79 1017.1
20260506062256 59 207 0.9 0.9 0.00 0.00 0.00 79 1016.7
20260506061756 59 216 0.0 0.9 0.00 0.00 0.00 79 1016.7
20260506061303 59 216 0.0 1.7 0.00 0.00 0.00 79 1016.7
20260506060805 59 216 0.0 1.7 0.00 0.00 0.00 79 1016.7
20260506060310 59 215 0.9 0.9 0.00 0.00 0.00 79 1016.7
20260506051301 60 221 0.9 3.5 0.00 0.00 0.00 79 1016.2
20260506050804 60 228 0.9 4.3 0.00 0.00 0.00 79 1016.2
20260506050249 60 225 2.6 4.3 0.00 0.00 0.00 79 1016.2
20260506044805 60 207 0.9 2.6 0.00 0.00 0.00 78 1016.1
20260506044249 60 202 0.9 1.7 0.00 0.00 0.00 78 1015.9
20260506043802 60 200 0.9 1.7 0.00 0.00 0.00 78 1015.9
20260506043309 60 196 0.9 1.7 0.00 0.00 0.00 78 1015.9
20260506042753 60 208 0.9 1.7 0.00 0.00 0.00 77 1015.8
20260506042256 60 215 0.9 2.6 0.00 0.00 0.00 77 1015.8
20260506041744 60 225 1.7 2.6 0.00 0.00 0.00 76 1015.8
20260506041249 60 221 0.9 2.6 0.00 0.00 0.00 76 1015.6
20260506040756 60 235 1.7 2.6 0.00 0.00 0.00 75 1015.6
20260506040259 61 222 1.7 2.6 0.00 0.00 0.00 74 1015.6
20260506035802 60 254 1.7 2.6 0.00 0.00 0.00 73 1015.4
20260506035307 60 203 0.9 1.7 0.00 0.00 0.00 74 1015.4
20260506034748 61 248 0.9 2.6 0.00 0.00 0.00 74 1015.4
20260506034316 60 267 0.9 2.6 0.00 0.00 0.00 74 1015.1
20260506033759 60 234 0.9 2.6 0.00 0.00 0.00 74 1015.1